EN

Hourly Weather Bolshoe Rashino

Today, 23 October, Friday

Time Temperature Precipitation Wind Pressure Humidity
00:00 +6°C° 0.8 mm 4 mps 737 mmHg 96%
01:00 +6°C° 0.8 mm 4 mps 737 mmHg 97%
02:00 +6°C° 0.8 mm 4 mps 736 mmHg 97%
03:00 +7°C° 0.7 mm 4 mps 736 mmHg 96%
04:00 +8°C° 0.7 mm 4 mps 736 mmHg 96%
05:00 +10°C° 0.7 mm 4 mps 736 mmHg 95%
06:00 +9°C° 0.2 mm 5 mps 736 mmHg 92%
07:00 +9°C° 0.2 mm 5 mps 736 mmHg 88%
08:00 +9°C° 0.2 mm 6 mps 737 mmHg 84%
09:00 +9°C° 0.1 mm 5 mps 737 mmHg 85%
10:00 +9°C° 0.1 mm 5 mps 737 mmHg 86%
11:00 +9°C° 0.1 mm 5 mps 738 mmHg 86%
12:00 +10°C° 0 mm 5 mps 738 mmHg 84%
13:00 +10°C° 0 mm 5 mps 738 mmHg 82%
14:00 +10°C° 0 mm 5 mps 738 mmHg 79%
15:00 +10°C° 0 mm 5 mps 737 mmHg 81%
16:00 +10°C° 0 mm 4 mps 737 mmHg 83%
17:00 +10°C° 0 mm 4 mps 737 mmHg 85%
18:00 +10°C° 0 mm 4 mps 737 mmHg 86%
19:00 +10°C° 0 mm 4 mps 736 mmHg 88%
20:00 +8°C° 0 mm 4 mps 736 mmHg 90%
21:00 +8°C° 0.4 mm 4 mps 736 mmHg 90%
22:00 +8°C° 0.4 mm 4 mps 736 mmHg 90%
23:00 +8°C° 0.4 mm 5 mps 736 mmHg 91%

Tomorrow, 24 October, Saturday

Time Temperature Precipitation Wind Pressure Humidity
00:00 +8°C° 0.1 mm 5 mps 737 mmHg 89%
01:00 +8°C° 0.1 mm 5 mps 737 mmHg 87%
02:00 +8°C° 0.1 mm 5 mps 737 mmHg 85%
03:00 +7°C° 0 mm 5 mps 738 mmHg 85%
04:00 +7°C° 0 mm 5 mps 738 mmHg 85%
05:00 +6°C° 0 mm 4 mps 739 mmHg 85%
06:00 +6°C° 0 mm 4 mps 740 mmHg 86%
07:00 +6°C° 0 mm 4 mps 740 mmHg 87%
08:00 +5°C° 0 mm 3 mps 741 mmHg 88%
09:00 +6°C° 0.1 mm 4 mps 741 mmHg 84%
10:00 +7°C° 0.1 mm 4 mps 742 mmHg 80%
11:00 +7°C° 0.1 mm 4 mps 742 mmHg 76%
12:00 +7°C° 0 mm 4 mps 742 mmHg 74%
13:00 +6°C° 0 mm 4 mps 742 mmHg 72%
14:00 +6°C° 0 mm 4 mps 743 mmHg 70%
15:00 +5°C° 0 mm 3 mps 743 mmHg 75%
16:00 +5°C° 0 mm 2 mps 743 mmHg 81%
17:00 +5°C° 0 mm 1 mps 743 mmHg 86%
18:00 +5°C° 0 mm 1 mps 743 mmHg 88%
19:00 +4°C° 0 mm 2 mps 743 mmHg 90%
20:00 +3°C° 0 mm 2 mps 743 mmHg 92%
21:00 +4°C° 0 mm 1 mps 743 mmHg 93%
22:00 +4°C° 0 mm 1 mps 743 mmHg 94%
23:00 +4°C° 0 mm 1 mps 743 mmHg 95%

Day after tomorrow, 25 October, Sunday

Time Temperature Precipitation Wind Pressure Humidity
00:00 +4°C° 0 mm 1 mps 743 mmHg 95%
01:00 +4°C° 0 mm 1 mps 743 mmHg 96%
02:00 +4°C° 0 mm 1 mps 743 mmHg 96%
03:00 +4°C° 0 mm 2 mps 743 mmHg 96%
04:00 +4°C° 0 mm 2 mps 743 mmHg 96%
05:00 +5°C° 0 mm 2 mps 743 mmHg 96%
06:00 +5°C° 0.3 mm 2 mps 742 mmHg 96%
07:00 +5°C° 0.3 mm 2 mps 742 mmHg 96%
08:00 +6°C° 0.3 mm 2 mps 742 mmHg 96%
09:00 +6°C° 1 mm 2 mps 743 mmHg 96%
10:00 +6°C° 1 mm 2 mps 743 mmHg 96%
11:00 +6°C° 1 mm 2 mps 744 mmHg 97%
12:00 +6°C° 0.1 mm 2 mps 744 mmHg 94%
13:00 +7°C° 0.1 mm 3 mps 745 mmHg 92%
14:00 +6°C° 0.1 mm 4 mps 745 mmHg 89%
15:00 +7°C° 0 mm 3 mps 746 mmHg 90%
16:00 +5°C° 0 mm 3 mps 747 mmHg 90%
17:00 +4°C° 0 mm 3 mps 748 mmHg 90%
18:00 +3°C° 0 mm 3 mps 748 mmHg 91%
19:00 +4°C° 0 mm 2 mps 749 mmHg 91%
20:00 +3°C° 0 mm 2 mps 750 mmHg 91%
21:00 +2°C° 0 mm 2 mps 750 mmHg 92%
22:00 +2°C° 0 mm 2 mps 751 mmHg 93%
23:00 +2°C° 0 mm 2 mps 751 mmHg 94%

, 26 October, Monday

Time Temperature Precipitation Wind Pressure Humidity
00:00 +1°C° 0 mm 2 mps 752 mmHg 94%
01:00 +2°C° 0 mm 1 mps 752 mmHg 95%
02:00 +2°C° 0 mm 1 mps 752 mmHg 95%
03:00 +2°C° 0 mm 1 mps 753 mmHg 95%
04:00 +2°C° 0 mm 1 mps 753 mmHg 94%
05:00 +2°C° 0 mm 1 mps 753 mmHg 94%
06:00 +3°C° 0 mm 1 mps 754 mmHg 93%
07:00 +3°C° 0 mm 1 mps 754 mmHg 91%
08:00 +3°C° 0 mm 2 mps 754 mmHg 89%
09:00 +4°C° 0 mm 2 mps 754 mmHg 88%
10:00 +5°C° 0 mm 2 mps 755 mmHg 87%
11:00 +6°C° 0 mm 2 mps 755 mmHg 85%
12:00 +6°C° 0 mm 2 mps 755 mmHg 85%
13:00 +7°C° 0 mm 2 mps 755 mmHg 85%
14:00 +7°C° 0 mm 2 mps 755 mmHg 84%
15:00 +7°C° 0 mm 2 mps 755 mmHg 87%
16:00 +6°C° 0 mm 2 mps 755 mmHg 90%
17:00 +5°C° 0 mm 2 mps 756 mmHg 93%
18:00 +5°C° 0 mm 2 mps 756 mmHg 93%
19:00 +5°C° 0 mm 2 mps 756 mmHg 93%
20:00 +4°C° 0 mm 2 mps 756 mmHg 93%
21:00 +4°C° 0 mm 2 mps 756 mmHg 93%
22:00 +4°C° 0 mm 2 mps 756 mmHg 94%
23:00 +4°C° 0 mm 2 mps 756 mmHg 94%

26 October, Monday

Time Temperature Precipitation Wind Pressure Humidity
00:00 +1°C° 0 mm 2 mps 752 mmHg 94%
01:00 +2°C° 0 mm 1 mps 752 mmHg 95%
02:00 +2°C° 0 mm 1 mps 752 mmHg 95%
03:00 +2°C° 0 mm 1 mps 753 mmHg 95%
04:00 +2°C° 0 mm 1 mps 753 mmHg 94%
05:00 +2°C° 0 mm 1 mps 753 mmHg 94%
06:00 +3°C° 0 mm 1 mps 754 mmHg 93%
07:00 +3°C° 0 mm 1 mps 754 mmHg 91%
08:00 +3°C° 0 mm 2 mps 754 mmHg 89%
09:00 +4°C° 0 mm 2 mps 754 mmHg 88%
10:00 +5°C° 0 mm 2 mps 755 mmHg 87%
11:00 +6°C° 0 mm 2 mps 755 mmHg 85%
12:00 +6°C° 0 mm 2 mps 755 mmHg 85%
13:00 +7°C° 0 mm 2 mps 755 mmHg 85%
14:00 +7°C° 0 mm 2 mps 755 mmHg 84%
15:00 +7°C° 0 mm 2 mps 755 mmHg 87%
16:00 +6°C° 0 mm 2 mps 755 mmHg 90%
17:00 +5°C° 0 mm 2 mps 756 mmHg 93%
18:00 +5°C° 0 mm 2 mps 756 mmHg 93%
19:00 +5°C° 0 mm 2 mps 756 mmHg 93%
20:00 +4°C° 0 mm 2 mps 756 mmHg 93%
21:00 +4°C° 0 mm 2 mps 756 mmHg 93%
22:00 +4°C° 0 mm 2 mps 756 mmHg 94%
23:00 +4°C° 0 mm 2 mps 756 mmHg 94%

27 October, Tuesday

Time Temperature Precipitation Wind Pressure Humidity
00:00 +4°C° 0 mm 2 mps 756 mmHg 94%
01:00 +3°C° 0 mm 2 mps 756 mmHg 95%
02:00 +3°C° 0 mm 2 mps 756 mmHg 95%
03:00 +3°C° 0 mm 2 mps 756 mmHg 95%
04:00 +2°C° 0 mm 3 mps 756 mmHg 94%
05:00 +2°C° 0 mm 3 mps 756 mmHg 94%
06:00 +2°C° 0 mm 3 mps 756 mmHg 93%
07:00 +2°C° 0 mm 3 mps 756 mmHg 92%
08:00 +2°C° 0 mm 3 mps 756 mmHg 92%
09:00 +3°C° 0 mm 4 mps 756 mmHg 88%
10:00 +4°C° 0 mm 4 mps 756 mmHg 84%
11:00 +5°C° 0 mm 4 mps 756 mmHg 81%
12:00 +5°C° 0 mm 4 mps 755 mmHg 80%
13:00 +6°C° 0 mm 4 mps 755 mmHg 79%
14:00 +6°C° 0 mm 4 mps 755 mmHg 78%
15:00 +6°C° 0 mm 4 mps 755 mmHg 80%
16:00 +5°C° 0 mm 4 mps 754 mmHg 81%
17:00 +5°C° 0 mm 4 mps 754 mmHg 83%
18:00 +5°C° 0 mm 4 mps 754 mmHg 83%
19:00 +5°C° 0 mm 4 mps 753 mmHg 83%
20:00 +5°C° 0 mm 4 mps 753 mmHg 83%
21:00 +5°C° 0.2 mm 4 mps 753 mmHg 85%
22:00 +5°C° 0.2 mm 4 mps 753 mmHg 88%
23:00 +5°C° 0.2 mm 4 mps 753 mmHg 90%

28 October, Wednesday

Time Temperature Precipitation Wind Pressure Humidity
00:00 +6°C° 0.2 mm 4 mps 753 mmHg 90%
01:00 +6°C° 0.2 mm 4 mps 752 mmHg 89%
02:00 +6°C° 0.2 mm 4 mps 752 mmHg 89%
03:00 +6°C° 0 mm 4 mps 752 mmHg 89%
04:00 +5°C° 0 mm 4 mps 752 mmHg 90%
05:00 +5°C° 0 mm 4 mps 752 mmHg 91%
06:00 +5°C° 0 mm 4 mps 751 mmHg 91%
07:00 +6°C° 0 mm 4 mps 751 mmHg 91%
08:00 +6°C° 0 mm 4 mps 751 mmHg 91%
09:00 +6°C° 0 mm 4 mps 751 mmHg 89%
10:00 +7°C° 0 mm 4 mps 751 mmHg 87%
11:00 +8°C° 0 mm 5 mps 751 mmHg 85%
12:00 +8°C° 0 mm 4 mps 750 mmHg 84%
13:00 +8°C° 0 mm 4 mps 750 mmHg 84%
14:00 +10°C° 0 mm 4 mps 750 mmHg 84%
15:00 +8°C° 0 mm 4 mps 749 mmHg 85%
16:00 +8°C° 0 mm 4 mps 749 mmHg 87%
17:00 +8°C° 0 mm 4 mps 749 mmHg 88%
18:00 +8°C° 0.2 mm 4 mps 749 mmHg 89%
19:00 +8°C° 0.2 mm 5 mps 749 mmHg 90%
20:00 +8°C° 0.2 mm 5 mps 749 mmHg 91%
21:00 +8°C° 0.2 mm 5 mps 749 mmHg 91%
22:00 +10°C° 0.2 mm 4 mps 749 mmHg 92%
23:00 +10°C° 0.2 mm 4 mps 749 mmHg 92%
Show more